Hurghada, Egypt

3:39 PM EET on February 26, 2017 (GMT +0200)
Hurghada International

Weather History for HEGN - March, 2013

Change the Weather History Date:

Friday, March 1, 2013

  Actual Average Record
Temperature  
Mean Temperature 70 °F -  
Max Temperature 81 °F 75 °F 97 °F (2016)
Min Temperature 58 °F 58 °F 50 °F (2003)
Cooling Degree Days 4    
Growing Degree Days 20 (Base 50)    
Moisture  
Dew Point 44 °F    
Average Humidity 41    
Maximum Humidity 72    
Minimum Humidity 19    
Precipitation  
Precipitation 0.00 in - - ()
Sea Level Pressure  
Sea Level Pressure 29.95 in    
Wind  
Wind Speed 16 mph ()    
Max Wind Speed 25 mph    
Max Gust Speed -    
Visibility 6.0 miles    
Events      
Averages and records for this station are not official NWS values.
T = Trace of Precipitation, MM = Missing Value Source: Averaged Metar Reports

Daily Weather History Graph

Daily Weather History Graph

Search for Another Location

Airport or City:

Trip Planner

Search our weather history database for the weather conditions in past years. The results will help you decide how hot, cold, wet, or windy it might be!

Date:

Astronomy

Mar. 01, 2013 Rise Set
Actual Time 6:09 AM EET 5:45 PM EET
Civil Twilight 5:45 AM EET 6:09 PM EET
Nautical Twilight 5:18 AM EET 6:36 PM EET
Astronomical Twilight 4:51 AM EET 7:03 PM EET
Moon 9:28 PM EET (3/1) 8:07 AM EET (3/1)
Length of Visible Light 12h 23m
Length of Day
11h 36m
Waning Gibbous, 86% of the Moon is Illuminated
Mar 1
Waning Gibbous
Mar 4
Last Quarter
Mar 11
New
Mar 19
First Quarter
Mar 27
Full

Hourly Weather History & Observations

Time (EET) Temp. Dew Point Humidity Pressure Visibility Wind Dir Wind Speed Gust Speed Precip Events Conditions
12:00 AM 66.2 °F 37.4 °F 35% 29.98 in - NW 16.1 mph - N/A   Clear
1:00 AM 64.4 °F 39.2 °F 40% 29.98 in - NW 16.1 mph - N/A   Clear
2:00 AM 64 °F 41 °F 31% 29.98 in 6 mi NW 16.1 mph - -  
2:00 AM 64.4 °F 41.0 °F 42% 29.98 in - NW 16.1 mph - N/A   Clear
3:00 AM 62.6 °F 44.6 °F 52% 29.95 in - NW 20.7 mph - N/A   Clear
4:00 AM 60.8 °F 48.2 °F 63% 29.95 in - WNW 20.7 mph - N/A   Clear
5:00 AM 60.8 °F 48.2 °F 63% 29.95 in - WNW 18.4 mph - N/A   Clear
6:00 AM 59.0 °F 48.2 °F 67% 29.95 in - WNW 18.4 mph - N/A   Clear
7:00 AM 59.0 °F 50.0 °F 72% 29.95 in - WNW 20.7 mph - N/A   Clear
8:00 AM 63 °F 50 °F 52% 29.97 in 6 mi WNW 20.7 mph - -  
8:00 AM 62.6 °F 50.0 °F 63% 29.95 in - WNW 20.7 mph - N/A   Clear
9:00 AM 68.0 °F 46.4 °F 46% 29.98 in - NW 20.7 mph - N/A   Clear
10:00 AM 73.4 °F 44.6 °F 36% 29.98 in - NNW 13.8 mph - N/A   Clear
11:00 AM 77.0 °F 46.4 °F 34% 29.98 in - North 18.4 mph - N/A   Clear
12:00 PM 77.0 °F 44.6 °F 32% 29.95 in - North 20.7 mph - N/A   Clear
1:00 PM 78.8 °F 46.4 °F 32% 29.92 in - North 25.3 mph - N/A   Clear
2:00 PM 79 °F 46 °F 20% 29.92 in 6 mi North 23.0 mph - -  
2:00 PM 78.8 °F 46.4 °F 32% 29.92 in - North 23.0 mph - N/A   Clear
3:00 PM 80.6 °F 44.6 °F 28% 29.89 in - North 15.0 mph - N/A   Clear
4:00 PM 78.8 °F 44.6 °F 30% 29.89 in - North 18.4 mph - N/A   Clear
5:00 PM 77.0 °F 44.6 °F 32% 29.89 in - North 18.4 mph - N/A   Clear
6:00 PM 73.4 °F 46.4 °F 38% 29.89 in - North 12.7 mph - N/A   Clear
7:00 PM 71.6 °F 44.6 °F 38% 29.92 in - North 15.0 mph - N/A   Clear
8:00 PM 70 °F 37 °F 19% 29.95 in 6 mi North 15.0 mph - -  
8:00 PM 69.8 °F 37.4 °F 31% 29.95 in - North 15.0 mph - N/A   Clear
9:00 PM 69.8 °F 37.4 °F 31% 29.95 in - North 9.2 mph - N/A   Clear
10:00 PM 66.2 °F 46.4 °F 49% 29.95 in - North 13.8 mph - N/A   Clear
11:00 PM 66.2 °F 41.0 °F 40% 29.95 in - North 16.1 mph - N/A   Clear